This is the latest recevied weather packets stored in our database for station/object KC3UTO. If no packets are shown the sender has not sent any weather packets the latest 10 day(s).
| Time | Temp. | Humidity | Pressure | Rain* | Wind** | Luminosity | Snow |
|---|---|---|---|---|---|---|---|
| 1777651681 | 15° C | 44% | 1012.4 hPa | 0 mm | - | 863 W/m² | - |
| 1777651378 | 14.44° C | 43% | 1012.4 hPa | 0 mm | - | 899 W/m² | - |
| 1777651076 | 15° C | 41% | 1012.4 hPa | 0 mm | - | 892 W/m² | - |
| 1777650772 | 14.44° C | 42% | 1013 hPa | 0 mm | - | 889 W/m² | - |
| 1777650469 | 14.44° C | 41% | 1012.7 hPa | 0 mm | - | 884 W/m² | - |
| 1777650166 | 14.44° C | 42% | 1013.1 hPa | 0 mm | - | 879 W/m² | - |
| 1777649863 | 13.89° C | 44% | 1013 hPa | 0 mm | - | 110 W/m² | - |
| 1777649561 | 13.33° C | 45% | 1013.1 hPa | 0 mm | - | 92 W/m² | - |
| 1777649258 | 13.89° C | 42% | 1013.2 hPa | 0 mm | - | 812 W/m² | - |
| 1777648954 | 13.89° C | 47% | 1013.2 hPa | 0 mm | - | 845 W/m² | - |
| 1777648651 | 13.33° C | 44% | 1013.3 hPa | 0 mm | - | 358 W/m² | - |
| 1777648347 | 13.33° C | 48% | 1013 hPa | 0 mm | - | 839 W/m² | - |
| 1777648044 | 13.89° C | 48% | 1013.2 hPa | 0 mm | - | 732 W/m² | - |
| 1777647740 | 14.44° C | 42% | 1013.1 hPa | 0 mm | - | 829 W/m² | - |
| 1777647437 | 13.89° C | 46% | 1013.3 hPa | 0 mm | - | 825 W/m² | - |
| 1777647135 | 13.33° C | 47% | 1013.2 hPa | 0 mm | - | 817 W/m² | - |
| 1777646830 | 13.33° C | 47% | 1013 hPa | 0 mm | - | 805 W/m² | - |
| 1777646526 | 12.78° C | 49% | 1013.3 hPa | 0 mm | - | 787 W/m² | - |
| 1777646222 | 12.78° C | 50% | 1013.2 hPa | 0 mm | - | 765 W/m² | - |
| 1777645920 | 13.33° C | 51% | 1013.1 hPa | 0 mm | - | 752 W/m² | - |
| 1777645617 | 12.78° C | 53% | 1013.1 hPa | 0 mm | - | 732 W/m² | - |
| 1777645312 | 12.78° C | 56% | 1013.2 hPa | 0 mm | - | 728 W/m² | - |
| 1777645009 | 13.33° C | 54% | 1013.4 hPa | 0 mm | - | 710 W/m² | - |
| 1777644706 | 12.78° C | 55% | 1013.4 hPa | 0 mm | - | 369 W/m² | - |
| 1777644402 | 12.22° C | 55% | 1013.6 hPa | 0 mm | - | 662 W/m² | - |
* Rain latest hour (hover to see other rain measurements)
** Current wind speed in m/s (hover to see current wind gust speed)